#timestamp,LO_Frequency,Hit,StdDev 
1583226015.9,286047012.5,N
1583226035.7,286047016.4,N
1583226055.6,286047008.9,N
1583226075.4,286047006.7,N
1583226095.2,286047012.0,N
1583226115.1,286047009.7,N
1583226116.0,286047009.7,N
1583226135.8,286047012.6,N
1583226155.7,286047017.1,N
1583226175.5,286047023.5,Y
1583226195.3,286047015.0,P
1583226215.2,286047010.2,P
1583226235.0,286047003.3,N
1583226235.9,286047003.3,N
1583226255.8,286047000.0,N
1583226275.6,286047001.2,N
1583226295.4,286047005.2,N
1583226315.3,286046999.6,N
1583226335.1,286046999.7,N
1583226355.8,286047014.7,N
1583226375.7,286047015.2,N
1583226395.5,286047008.5,N
1583226415.4,286046999.3,N
1583226435.2,286046991.9,N
1583226455.0,286046990.5,N
1583226455.9,286046990.5,N
1583226475.8,286046990.0,N
1583226495.6,286046995.8,N
1583226515.4,286047003.2,N
1583226535.3,286046993.4,N
1583226555.1,286046991.5,N
1583226575.9,286046985.0,N
1583226595.7,286046981.3,N
1583226615.5,286046990.2,N
1583226635.4,286046986.2,N
1583226655.2,286046982.7,N
1583226675.1,286046983.3,N
1583226676.0,286046983.3,N
1583226695.8,286046986.6,N
1583226715.7,286046978.6,N
1583226735.5,286046970.3,N
1583226755.3,286046973.2,N
1583226775.2,286046975.1,N
1583226795.0,286046965.4,Y
1583226795.9,286046965.4,P
1583226815.8,286046968.4,N
1583226835.6,286046962.9,P
1583226855.4,286046962.0,Y
1583226875.3,286046983.9,P
1583226895.1,286046980.7,P
1583226915.8,286046982.0,P
1583226935.7,286046978.9,Y
1583226955.5,286047002.5,P
1583226975.4,286047006.0,N
1583226995.2,286047012.3,N
1583227015.0,286047005.6,N
1583227015.9,286047005.6,N
1583227035.8,286046997.5,N
1583227055.6,286047005.1,N
1583227075.4,286047009.9,N
1583227095.3,286047003.1,N
1583227115.1,286047006.8,N
1583227135.9,286047012.0,N
1583227155.7,286047008.6,N
1583227175.6,286047002.1,N
1583227195.4,286047002.8,N
1583227215.2,286047002.8,N
1583227235.1,286047000.9,N
1583227236.0,286047000.9,N
1583227255.8,286047005.3,N
1583227275.7,286047000.2,N
1583227295.5,286046998.4,N
1583227315.4,286046996.5,N
1583227335.2,286047002.6,N
1583227355.0,286047000.2,N
1583227355.9,286047000.2,N
1583227375.8,286047004.3,N
1583227395.6,286047004.6,N
1583227415.5,286047012.1,N
1583227435.3,286047019.3,Y
1583227455.1,286047015.8,P
1583227475.9,286047023.6,P
1583227495.7,286047026.9,P
1583227515.5,286047019.5,N
1583227535.4,286047009.4,N
1583227555.2,286047015.3,N
1583227575.1,286047026.0,Y
1583227576.0,286047026.0,P
1583227595.8,286047007.4,N
1583227615.6,286046996.8,N
1583227635.5,286046997.7,N
1583227655.3,286046991.9,N
1583227675.1,286046991.2,N
1583227695.9,286047001.0,N
1583227715.7,286046999.8,N
1583227735.6,286046996.7,N
1583227755.4,286046995.6,N
1583227775.2,286046994.9,N
1583227795.1,286046996.0,N
1583227796.0,286046996.0,N
1583227815.8,286046993.6,N
1583227835.6,286046997.5,N
1583227855.5,286046995.3,N
1583227875.3,286046991.0,N
1583227895.2,286046987.7,N
1583227915.9,286046986.0,N
1583227935.7,286046985.5,N
1583227985.6,286046986.1,E
1583227995.5,286046990.6,N
1583228015.3,286047001.9,P
1583228035.2,286047005.3,N
1583228055.0,286047000.4,N
1583228055.9,286047000.4,N
1583228075.8,286046995.7,N
1583228095.6,286046995.0,N
1583228115.4,286046995.8,N
1583228135.3,286046996.4,N
1583228155.1,286047002.1,N
1583228175.9,286047008.4,N
1583228195.7,286047009.2,N
1583228215.5,286047029.1,Y
1583228235.4,286047001.8,P
1583228255.2,286047006.8,P
1583228275.0,286047003.5,N
1583228275.9,286047003.5,N
1583228295.8,286046998.7,N
1583228315.6,286046995.4,N
1583228335.5,286046997.3,N
1583228355.3,286046999.0,N
1583228375.1,286046996.7,N
1583228395.9,286046997.8,N
1583228415.7,286047008.5,N
1583228435.6,286047013.5,Y
1583228455.4,286047004.8,P
1583228475.2,286047000.2,N
1583228495.1,286046999.1,N
1583228496.0,286046999.1,N
1583228515.8,286046999.1,N
1583228535.6,286047008.7,Y
1583228555.5,286047008.3,P
1583228575.3,286047006.3,N
1583228595.2,286047004.8,N
1583228615.9,286047000.0,N
1583228635.7,286046999.2,N
1583228655.6,286046990.7,N
1583228675.4,286046983.5,Y
1583228695.2,286046982.9,P
1583228715.1,286046985.2,N
1583228716.0,286046985.2,N
1583228735.8,286046987.4,N
1583228755.7,286046993.4,N
1583228775.5,286046990.8,N
1583228795.3,286046985.3,N
1583228815.2,286046984.3,N
1583228835.0,286046988.4,N
1583228835.9,286046988.4,N
1583228855.7,286046985.0,N
1583228875.6,286046981.2,Y
1583228895.4,286046992.0,P
1583228915.3,286046993.0,P
1583228935.1,286046989.8,P
1583228936.0,286046989.8,Y
1583228955.8,286047010.2,P
1583228975.7,286047007.3,N
1583228995.5,286047002.9,N
1583229015.4,286047008.3,N
1583229035.2,286047006.6,N
1583229055.0,286047005.7,N
1583229055.9,286047005.7,N
1583229075.8,286047002.8,N
1583229095.6,286047013.0,N
1583229115.4,286047014.1,N
1583229135.3,286047012.9,N
1583229155.1,286047008.9,N
1583229175.9,286047011.9,N
1583229195.7,286047011.5,N
1583229215.5,286047011.3,N
1583229235.4,286047021.4,Y
1583229255.2,286047010.5,P
1583229275.0,286047002.9,N
1583229276.0,286047002.9,N
1583229295.8,286047006.2,N
1583229315.6,286047003.3,N
1583229335.5,286046999.9,N
1583229355.3,286047001.1,N
1583229375.1,286046998.5,N
1583229395.9,286046996.5,N
1583229415.7,286046997.2,N
1583229435.6,286046997.9,N
1583229455.4,286046993.3,N
1583229475.2,286046994.7,N
1583229495.1,286046992.8,N
1583229496.0,286046992.8,N
1583229515.8,286046993.3,N
1583229535.7,286046997.1,N
1583229555.5,286046995.5,N
1583229575.3,286046994.4,N
1583229595.2,286046998.6,N
